• In Belarus
  • List of Countries
  • For 7 days
  • Water Temperature
  • Satellite Maps
  • Weather Map
  • Weather Widgets
  • user-avatar
    Login

    Hourly Weather Chorni Lozy

    Today, 19 February, Monday

    Time Temperature Precipitation Wind Pressure Humidity
    00:00 -7°C° 0 mm 3 mps 751 mmHg 95%
    01:00 -7°C° 0 mm 3 mps 751 mmHg 96%
    02:00 -8°C° 0 mm 3 mps 751 mmHg 96%
    03:00 -7°C° 0.1 mm 3 mps 751 mmHg 96%
    04:00 -7°C° 0.1 mm 3 mps 751 mmHg 96%
    05:00 -7°C° 0.1 mm 3 mps 751 mmHg 96%
    06:00 -7°C° 0.1 mm 3 mps 752 mmHg 96%
    07:00 -7°C° 0.1 mm 3 mps 752 mmHg 95%
    08:00 -7°C° 0.1 mm 3 mps 752 mmHg 95%
    09:00 -6°C° 0 mm 3 mps 752 mmHg 93%
    10:00 -7°C° 0 mm 4 mps 752 mmHg 90%
    11:00 -7°C° 0 mm 4 mps 752 mmHg 88%
    12:00 -5°C° 0 mm 4 mps 753 mmHg 87%
    13:00 -5°C° 0 mm 4 mps 753 mmHg 85%
    14:00 -5°C° 0 mm 4 mps 753 mmHg 84%
    15:00 -7°C° 0.1 mm 4 mps 753 mmHg 86%
    16:00 -6°C° 0.1 mm 3 mps 753 mmHg 87%
    17:00 -6°C° 0.1 mm 3 mps 753 mmHg 89%
    18:00 -7°C° 0 mm 3 mps 753 mmHg 91%
    19:00 -7°C° 0 mm 3 mps 753 mmHg 92%
    20:00 -6°C° 0 mm 2 mps 753 mmHg 94%
    21:00 -7°C° 0 mm 2 mps 753 mmHg 94%
    22:00 -8°C° 0 mm 2 mps 753 mmHg 95%
    23:00 -9°C° 0 mm 2 mps 753 mmHg 95%

    Tomorrow, 20 February, Tuesday

    Time Temperature Precipitation Wind Pressure Humidity
    00:00 -9°C° 0 mm 2 mps 753 mmHg 95%
    01:00 -9°C° 0 mm 2 mps 753 mmHg 95%
    02:00 -10°C° 0 mm 2 mps 753 mmHg 95%
    03:00 -10°C° 0 mm 2 mps 753 mmHg 95%
    04:00 -12°C° 0 mm 2 mps 754 mmHg 95%
    05:00 -13°C° 0 mm 2 mps 754 mmHg 95%
    06:00 -13°C° 0 mm 2 mps 754 mmHg 95%
    07:00 -13°C° 0 mm 2 mps 754 mmHg 95%
    08:00 -13°C° 0 mm 2 mps 754 mmHg 95%
    09:00 -12°C° 0 mm 2 mps 754 mmHg 94%
    10:00 -9°C° 0 mm 2 mps 754 mmHg 93%
    11:00 -8°C° 0 mm 2 mps 755 mmHg 93%
    12:00 -7°C° 0 mm 2 mps 755 mmHg 92%
    13:00 -8°C° 0 mm 3 mps 755 mmHg 91%
    14:00 -7°C° 0 mm 3 mps 755 mmHg 90%
    15:00 -6°C° 0 mm 2 mps 755 mmHg 90%
    16:00 -6°C° 0 mm 2 mps 755 mmHg 90%
    17:00 -6°C° 0 mm 2 mps 755 mmHg 90%
    18:00 -7°C° 0 mm 2 mps 755 mmHg 91%
    19:00 -7°C° 0 mm 2 mps 755 mmHg 92%
    20:00 -7°C° 0 mm 2 mps 755 mmHg 92%
    21:00 -7°C° 0 mm 2 mps 755 mmHg 93%
    22:00 -8°C° 0 mm 2 mps 755 mmHg 93%
    23:00 -8°C° 0 mm 2 mps 755 mmHg 93%

    Day after tomorrow, 21 February, Wednesday

    Time Temperature Precipitation Wind Pressure Humidity
    00:00 -8°C° 0 mm 2 mps 755 mmHg 93%
    01:00 -9°C° 0 mm 2 mps 755 mmHg 94%
    02:00 -9°C° 0 mm 2 mps 755 mmHg 94%
    03:00 -8°C° 0 mm 1 mps 755 mmHg 94%
    04:00 -9°C° 0 mm 1 mps 755 mmHg 94%
    05:00 -9°C° 0 mm 1 mps 755 mmHg 94%
    06:00 -10°C° 0 mm 1 mps 755 mmHg 94%
    07:00 -10°C° 0 mm 1 mps 756 mmHg 94%
    08:00 -10°C° 0 mm 1 mps 756 mmHg 94%
    09:00 -9°C° 0 mm 1 mps 756 mmHg 92%
    10:00 -7°C° 0 mm 0 mps 756 mmHg 89%
    11:00 -6°C° 0 mm 0 mps 756 mmHg 87%
    12:00 -6°C° 0 mm 0 mps 756 mmHg 85%
    13:00 -5°C° 0 mm 0 mps 756 mmHg 84%
    14:00 -4°C° 0 mm 0 mps 755 mmHg 82%
    15:00 -5°C° 0 mm 0 mps 755 mmHg 84%
    16:00 -5°C° 0 mm 0 mps 755 mmHg 86%
    17:00 -6°C° 0 mm 0 mps 755 mmHg 88%
    18:00 -6°C° 0 mm 1 mps 755 mmHg 89%
    19:00 -7°C° 0 mm 1 mps 755 mmHg 90%
    20:00 -7°C° 0 mm 1 mps 756 mmHg 90%
    21:00 -8°C° 0 mm 1 mps 756 mmHg 91%
    22:00 -8°C° 0 mm 1 mps 756 mmHg 91%
    23:00 -10°C° 0 mm 2 mps 756 mmHg 92%

    22 February, Thursday

    Time Temperature Precipitation Wind Pressure Humidity
    00:00 -10°C° 0 mm 2 mps 756 mmHg 92%
    01:00 -12°C° 0 mm 2 mps 756 mmHg 93%
    02:00 -12°C° 0 mm 2 mps 756 mmHg 93%
    03:00 -13°C° 0 mm 2 mps 756 mmHg 93%
    04:00 -13°C° 0 mm 2 mps 756 mmHg 93%
    05:00 -11°C° 0 mm 1 mps 756 mmHg 93%
    06:00 -13°C° 0 mm 2 mps 756 mmHg 93%
    07:00 -13°C° 0 mm 2 mps 756 mmHg 93%
    08:00 -13°C° 0 mm 2 mps 756 mmHg 93%
    09:00 -10°C° 0 mm 2 mps 756 mmHg 91%
    10:00 -9°C° 0 mm 2 mps 757 mmHg 90%
    11:00 -8°C° 0 mm 2 mps 757 mmHg 88%
    12:00 -7°C° 0 mm 2 mps 756 mmHg 87%
    13:00 -7°C° 0 mm 2 mps 756 mmHg 86%
    14:00 -6°C° 0 mm 2 mps 756 mmHg 86%
    15:00 -7°C° 0 mm 2 mps 756 mmHg 88%
    16:00 -8°C° 0 mm 2 mps 756 mmHg 90%
    17:00 -9°C° 0 mm 2 mps 755 mmHg 92%
    18:00 -9°C° 0 mm 2 mps 755 mmHg 92%
    19:00 -10°C° 0 mm 2 mps 755 mmHg 92%
    20:00 -12°C° 0 mm 2 mps 756 mmHg 92%
    21:00 -12°C° 0 mm 2 mps 756 mmHg 92%
    22:00 -12°C° 0 mm 2 mps 755 mmHg 91%
    23:00 -12°C° 0 mm 2 mps 755 mmHg 91%

    23 February, Friday

    Time Temperature Precipitation Wind Pressure Humidity
    00:00 -13°C° 0 mm 2 mps 755 mmHg 91%
    01:00 -13°C° 0 mm 2 mps 755 mmHg 90%
    02:00 -13°C° 0 mm 2 mps 755 mmHg 90%
    03:00 -14°C° 0 mm 2 mps 755 mmHg 89%
    04:00 -14°C° 0 mm 2 mps 755 mmHg 89%
    05:00 -14°C° 0 mm 2 mps 754 mmHg 89%
    06:00 -14°C° 0 mm 2 mps 754 mmHg 88%
    07:00 -15°C° 0 mm 3 mps 754 mmHg 87%
    08:00 -15°C° 0 mm 3 mps 754 mmHg 86%
    09:00 -14°C° 0 mm 3 mps 754 mmHg 86%
    10:00 -12°C° 0 mm 3 mps 754 mmHg 85%
    11:00 -10°C° 0 mm 3 mps 754 mmHg 85%
    12:00 -10°C° 0 mm 3 mps 753 mmHg 85%
    13:00 -9°C° 0 mm 3 mps 753 mmHg 85%
    14:00 -9°C° 0 mm 3 mps 753 mmHg 85%
    15:00 -9°C° 0.1 mm 3 mps 752 mmHg 87%
    16:00 -9°C° 0.1 mm 3 mps 752 mmHg 89%
    17:00 -10°C° 0.1 mm 3 mps 752 mmHg 91%
    18:00 -10°C° 0.2 mm 3 mps 751 mmHg 92%
    19:00 -10°C° 0.2 mm 3 mps 751 mmHg 93%
    20:00 -11°C° 0.2 mm 4 mps 751 mmHg 94%
    21:00 -12°C° 0.4 mm 3 mps 751 mmHg 94%
    22:00 -12°C° 0.4 mm 3 mps 750 mmHg 95%
    23:00 -12°C° 0.4 mm 3 mps 750 mmHg 95%

    24 February, Saturday

    Time Temperature Precipitation Wind Pressure Humidity
    00:00 -12°C° 0.3 mm 3 mps 750 mmHg 95%
    01:00 -12°C° 0.3 mm 3 mps 749 mmHg 95%
    02:00 -12°C° 0.3 mm 3 mps 749 mmHg 95%
    03:00 -12°C° 0.2 mm 3 mps 748 mmHg 96%
    04:00 -13°C° 0.2 mm 3 mps 748 mmHg 96%
    05:00 -13°C° 0.2 mm 3 mps 747 mmHg 96%
    06:00 -13°C° 0.2 mm 3 mps 747 mmHg 96%
    07:00 -13°C° 0.2 mm 3 mps 747 mmHg 95%
    08:00 -12°C° 0.2 mm 3 mps 747 mmHg 95%
    09:00 -12°C° 0.3 mm 3 mps 746 mmHg 94%
    10:00 -11°C° 0.3 mm 4 mps 746 mmHg 94%
    11:00 -11°C° 0.3 mm 4 mps 746 mmHg 93%
    12:00 -10°C° 0.5 mm 4 mps 746 mmHg 93%
    13:00 -11°C° 0.5 mm 5 mps 745 mmHg 93%
    14:00 -11°C° 0.5 mm 5 mps 745 mmHg 93%
    15:00 -11°C° 0.7 mm 5 mps 745 mmHg 93%
    16:00 -11°C° 0.7 mm 6 mps 744 mmHg 93%
    17:00 -11°C° 0.7 mm 6 mps 744 mmHg 93%
    18:00 -11°C° 0.7 mm 6 mps 744 mmHg 93%
    19:00 -13°C° 0.7 mm 7 mps 743 mmHg 93%
    20:00 -13°C° 0.7 mm 7 mps 743 mmHg 93%
    21:00 -13°C° 0.8 mm 7 mps 742 mmHg 93%
    22:00 -13°C° 0.8 mm 8 mps 742 mmHg 93%
    23:00 -13°C° 0.8 mm 8 mps 741 mmHg 93%
    Show more